Location: Burleson Alternative School
(32.5290°N, 97.3406°W)
Time: 22:21:55
(UTC+00:00)

JUGNU - Pass Details

Date: 08 December 2024
Orbit: 834 x 861 km, 20.0° (Epoch: 19 January)

Event Time Altitude Azimuth Distance (km) Brightness Sun altitude
Exits shadow 11:59:53 - 232° (SW) 2,744 ? -16.3°
Reaches altitude 10° 12:00:59 10° 225° (SW) 2,425 ? -16.1°
Maximum altitude 12:05:23 22° 176° (S) 1,722 ? -15.2°
Drops below altitude 10° 12:09:48 10° 126° (SE) 2,431 ? -14.4°
Sets 12:12:52 0° 112° (ESE) 3,369 ? -13.7°
